Location: Orange
(33.2833°S, 149.1000°E)
Time: 03:32:09
(UTC+11:00)

Envisat - Pass Details

Date: 08 October 2022
Orbit: 763 x 765 km, 98.2° (Epoch: 30 November)

Event Time Altitude Azimuth Distance (km) Brightness Sun altitude
Rises 05:32:13 0° 342° (NNW) 3,215 5.9 -13.1°
Reaches altitude 10° 05:34:55 10° 328° (NNW) 2,298 5.0 -12.6°
Maximum altitude 05:38:56 24° 275° (W) 1,572 4.0 -11.8°
Drops below altitude 10° 05:43:00 10° 223° (SW) 2,322 5.2 -10.9°
Sets 05:45:46 0° 208° (SSW) 3,257 6.1 -10.4°
